Current weather by "City, St" or "zip code"  
 

Current Conditions: Muskogee-Davis Regional Airport, OK

Fair


61.0 F

Last Updated on Oct 31 2020, 12:53 pm CDT
Humidity: 50%
Wind Speed: S 15.0 G 24.2 mph
Barometer 30.16 in
Dewpoint: 42.1 F
Visibility: 10.00 mi
Precip: --
Heat Index: NA
Wind Chill: 59 F
Current conditions at:

Muskogee-Davis Regional Airport, OK (KMKO)

Lat: 35.65694 Lon: 95.35972

Local Radar Image active severe weather and emergency alerts image image weather storm and storm spotter reports image weather observation monitoring service image
Local
Radar
Active
Alerts
Storm Reports Obs
Monitoring

Sign-up For Email & Text Message Weather Alert Notification Services



Advertise Here

Observation History for Muskogee-Davis Regional Airport, OK


Time Wind
(mph)
Vis
(mi)
Weather Precip (in) Temperature (F) Relative
Humidity
Wind
Chill
(F)
Heat
Index
(F)
Pressure
Air Dwpt altimeter
(in)
sea level
(mb)
Rmks
12:53 pm CDT S 15.0 G 24.2 10.00 Fair -- 61.0 42.1 50% 59 NA 30.16 1021.1
11:53 am CDT S 12.7 G 26.5 10.00 Fair -- 59.0 42.1 54% 57 NA 30.19 1022.3
10:53 am CDT S 10.4 10.00 Fair -- 54.0 45.0 72% 51 NA 30.24 1023.8
9:53 am CDT S 11.5 10.00 Fair -- 49.0 45.0 86% 44 NA 30.25 1024.1
8:53 am CDT SE 9.2 10.00 Fair -- 45.0 43.0 93% 40 NA 30.23 1023.9
7:53 am CDT S 5.8 6.00 Fog/Mist -- 41.0 39.9 96% 37 NA 30.22 1023.5
6:53 am CDT S 6.9 9.00 Fair -- 42.0 41.0 96% 38 NA 30.22 1023.3
5:53 am CDT S 8.1 10.00 Fair -- 43.0 42.1 97% 38 NA 30.21 1022.9
4:53 am CDT SE 6.9 10.00 Fair -- 44.0 42.1 93% 40 NA 30.20 1022.7
3:53 am CDT SE 6.9 10.00 Fair -- 44.0 42.1 93% 40 NA 30.21 1022.7
2:53 am CDT S 6.9 10.00 Fair -- 44.0 42.1 93% 40 NA 30.22 1023.2
1:53 am CDT SE 6.9 10.00 Fair -- 45.0 43.0 93% 41 NA 30.23 1023.6
12:53 am CDT SE 6.9 10.00 Fair -- 46.0 42.1 86% 42 NA 30.24 1023.7
11:53 pm CDT S 6.9 10.00 Fair -- 46.0 42.1 86% 42 NA 30.25 1024.4
10:53 pm CDT S 5.8 10.00 Fair -- 47.0 42.1 83% 44 NA 30.24 1024.0
9:53 pm CDT S 6.9 10.00 Fair -- 48.0 42.1 80% 45 NA 30.24 1023.9
8:53 pm CDT S 5.8 10.00 Fair -- 49.0 42.1 77% 47 NA 30.23 1023.9
7:53 pm CDT S 5.8 10.00 Fair -- 51.0 42.1 71% 49 NA 30.22 1023.6
6:53 pm CDT SE 5.8 10.00 Fair -- 54.0 42.1 64% 53 NA 30.21 1023.2
5:53 pm CDT SE 6.9 10.00 Fair -- 60.0 42.1 52% 59 NA 30.21 1023.2
4:53 pm CDT S 5.8 10.00 Fair -- 62.0 39.9 44% 62 NA 30.23 1023.6
3:53 pm CDT S 3.5 10.00 Fair -- 63.0 39.0 41% NA NA 30.24 1023.8
2:53 pm CDT SE 6.9 10.00 Fair -- 61.0 39.0 44% 60 NA 30.25 1024.4
1:53 pm CDT S 4.6 10.00 Fair -- 60.0 39.0 46% 60 NA 30.28 1025.4

Regional Weather Observation


Tahlequah, Tahlequah Municipal Airport, OK (KTQH)

Fair
59.0 F

Okmulgee, Okmulgee Municipal Airport, OK (KOKM)

Fair
63.0 F

Tulsa - Jones Jr. Airport, OK (KRVS)

Fair
66.0 F

Tulsa, Tulsa International Airport, OK (KTUL)

Partly Cloudy and Breezy
62.0 F

Claremore, Claremore Regional Airport, OK (KGCM)

Fair
59.0 F

Stigler, OK (KGZL)

NULL
63.0 F